Location: Denkershausen
(51.7388°N, 10.0454°E)
Time: 00:41:35
(UTC+00:00)

Daily predictions for brighter satellites

Satellite Brightness Start Highest point End
(mag) Time Altitude Azimuth Time Altitude Azimuth Time Altitude Azimuth
SL-16 R/B 3.2 00:12:19 50° NE 00:12:19 50° NE 00:17:37 10° N
Cosmos 1943 Rocket 3.6 00:17:17 33° NNW 00:17:17 33° NNW 00:21:06 10° NNE
COSMOS 2455 4.4 00:18:59 27° NW 00:19:44 28° NNW 00:24:54 10° NNE
CZ-2D R/B 3.7 00:17:24 10° NNE 00:20:45 28° ENE 00:20:45 28° ENE
ATLAS 5 CENTAUR R/B 4.3 00:26:24 15° ENE 00:26:24 15° ENE 00:27:21 10° ENE
Cosmos 2297 Rocket 3.2 00:24:14 10° NNW 00:28:49 43° NNE 00:28:49 43° NNE
Resurs 1-4 Rocket 3.4 00:31:19 10° NNE 00:34:54 35° ENE 00:34:54 35° ENE
Cosmos 2369 Rocket 3.4 00:41:05 35° NNW 00:41:05 35° NNW 00:45:18 10° NNE
NOSS 3-1 (A) 4.4 00:32:42 10° NW 00:37:40 49° WNW 00:37:40 49° WNW
Nadezhda 1 Rocket 4.4 00:42:41 56° N 00:42:41 56° N 00:47:26 10° N
Gbstr 26 Del rocket 4.4 00:44:54 83° E 00:44:54 83° E 00:52:31 10° E
CZ-4C R/B 3.7 00:47:10 30° NW 00:48:30 33° NNW 00:54:36 10° NE
USA 267 4.4 00:50:02 10° ENE 00:54:57 30° ESE 00:54:57 30° ESE
ATLAS 2AS CENTAUR R/B 4.3 00:51:12 10° WNW 00:58:15 34° N 01:04:58 10° ENE
Cosmos 2221 4.5 01:06:05 26° NNE 01:06:05 26° NNE 01:08:02 10° N
SL-8 Rocket 4.0 01:06:32 10° N 01:12:12 73° N 01:12:12 73° N
Meteor 2-2 Rocket 4.4 01:23:00 69° N 01:23:00 69° N 01:28:05 10° NNE
Cosmos 2218 Rocket 3.9 01:17:47 10° N 01:24:06 86° NW 01:24:06 86° NW
Cosmos 2366 rocket 3.9 01:20:23 10° N 01:26:34 86° NW 01:26:34 86° NW
Cosmos 2227 Rocket 2.8 01:21:12 10° NNW 01:25:13 48° NNW 01:25:13 48° NNW
Cosmos 1992 Rocket 4.4 01:30:28 56° E 01:30:28 56° E 01:35:06 10° NNE
Cosmos 1656 4.3 01:30:38 46° ESE 01:30:38 46° ESE 01:35:51 10° NE
Lacrosse 5 3.7 01:32:48 21° ESE 01:32:48 21° ESE 01:35:59 10° ENE
USA 234 3.1 01:26:45 10° ESE 01:33:18 88° NNE 01:37:43 23° WNW
ADEOS II 2.4 01:33:07 10° NNE 01:38:20 59° E 01:38:28 59° ESE
Cosmos 2219 4.5 01:34:58 10° NW 01:37:45 29° NW 01:37:45 29° NW
CZ-4B R/B 3.7 01:35:53 10° NNE 01:40:47 65° E 01:40:47 65° E
Cosmos 864 Rocket 4.4 01:37:40 10° NNW 01:43:29 70° WNW 01:43:29 70° WNW
SL-08 R/B 3.6 01:47:13 63° ENE 01:47:13 63° ENE 01:51:49 10° N
SL-08 R/B 4.5 01:41:30 10° N 01:47:56 87° E 01:49:27 56° SSE
Cosmos 2181 Rocket 3.8 01:47:57 71° W 01:48:04 71° WNW 01:54:17 10° N
Cosmos 1633 Rocket 3.8 01:45:34 10° N 01:48:58 50° NNE 01:48:58 50° NNE
IDEFIX/ARIANE 42P 4.0 01:46:26 10° NNE 01:51:11 33° E 01:53:40 22° SE
Cosmos 1666 Rocket 4.4 01:50:36 10° N 01:53:47 46° N 01:53:47 46° N
SL-16 R/B 3.6 01:57:26 29° WNW 01:57:26 29° WNW 02:01:06 10° NNW
Cosmos 1241 Rocket 4.3 01:54:48 70° WSW 01:55:34 83° NW 02:02:03 10° NE
Cosmos 1606 3.9 01:59:13 39° NNE 01:59:13 39° NNE 02:01:44 10° NNE
ATLAS CENTAUR R/B 4.3 01:42:16 11° W 01:59:44 65° NNW 02:06:03 10° ENE
ARIANE 5 R/B 3.3 01:55:26 10° NNE 02:00:23 47° E 02:01:51 37° SE
Cosmos 1151 Rocket 3.7 02:00:39 48° ESE 02:00:49 49° E 02:05:02 10° NNE
Cosmos 1943 Rocket 4.4 01:58:47 11° NW 02:01:17 14° NNW 02:04:13 10° N
IRS-1D 3.4 01:56:06 10° NNE 02:01:30 85° WNW 02:01:47 80° SW
CZ-2D R/B 2.6 01:57:21 10° N 02:02:04 44° NW 02:02:04 44° NW
AQUA 4.3 01:58:10 10° N 02:02:08 50° NW 02:02:08 50° NW
ATLAS 5 CENTAUR R/B 2.1 02:07:56 51° NNW 02:07:56 51° NNW 02:12:30 10° NE
NPP 4.0 02:03:22 10° N 02:08:28 48° WNW 02:08:28 48° WNW
Genesis I 4.2 02:12:59 40° N 02:12:59 40° N 02:15:56 10° NE
CBERS-1 3.9 02:08:35 10° NNE 02:13:41 73° WNW 02:13:59 70° W
Cosmos 2297 Rocket 3.8 02:08:30 10° NW 02:10:32 21° NW 02:10:32 21° NW
Resurs 1-4 Rocket 2.9 02:11:21 10° N 02:15:58 35° WNW 02:15:58 35° WNW
Cosmos 1933 3.4 02:18:15 75° ENE 02:18:15 75° ENE 02:22:10 10° NNE
Cosmos 2082 3.6 02:12:31 10° NW 02:18:11 69° WSW 02:20:23 38° S
USA 305 4.1 02:22:42 32° SE 02:22:42 32° SE 02:26:28 10° ENE
Cosmos 2369 Rocket 4.4 02:22:52 10° NW 02:25:44 14° NNW 02:28:47 10° N
USA 306 3.9 02:26:37 34° SE 02:26:42 34° SE 02:30:33 10° ENE
X-37B 3.3 02:29:08 14° SE 02:29:08 14° SE 02:29:46 10° ESE
CZ-2D R/B 4.0 02:23:23 10° NNE 02:27:31 55° E 02:28:45 40° SSE
SJ 16-02 2.9 02:24:18 10° N 02:28:23 35° ENE 02:32:25 10° SE
Meteor 1-25 Rocket 4.1 02:24:12 10° NNW 02:30:01 74° W 02:33:00 30° S
Gbstr 26 Del rocket 4.4 02:27:26 27° W 02:32:19 84° SSW 02:39:52 10° ESE
Cosmos 389 Rocket 3.9 02:32:18 28° SE 02:33:26 35° E 02:36:44 10° NNE
ASTEX 1 3.6 02:28:31 10° N 02:33:32 70° E 02:36:22 26° S
IRS-P3 4.0 02:28:40 10° NNE 02:34:01 74° WNW 02:35:28 49° SW
Cosmos 1697 Rocket 2.7 02:32:33 41° SSW 02:34:34 76° ESE 02:40:12 10° NNE
CZ-2C R/B 4.4 02:33:05 10° NE 02:37:29 28° E 02:41:55 10° SSE
H-2A R/B 2.7 02:33:36 10° SSE 02:37:54 58° ENE 02:42:18 10° N
Cosmos 1980 Rocket 3.0 02:35:19 22° S 02:38:45 48° ESE 02:44:11 10° NE
CZ-4C R/B 4.2 02:33:15 10° NW 02:38:50 32° NNE 02:45:22 10° ENE
USA 267 3.2 02:32:48 10° ENE 02:39:23 80° SSE 02:42:17 37° SW
ERS-2 3.8 02:37:59 10° SE 02:41:19 34° ENE 02:44:41 10° N
Iridium 2 4.4 02:39:47 29° SSE 02:41:22 52° E 02:45:03 10° NNE
Cosmos 1602 3.5 02:39:09 10° NNW 02:42:59 80° W 02:43:13 76° SW
ERS-1 4.4 02:38:36 10° NNE 02:43:44 80° WNW 02:45:42 39° SSW
Cosmos 2263 Rocket 2.6 02:38:50 10° NNW 02:44:28 63° NE 02:50:06 10° SE
SL-8 R/B 3.8 02:46:01 49° SSW 02:46:28 51° SSW 02:51:05 10° ESE
Meteor 1-14 Rocket 4.1 02:41:07 10° NNW 02:46:49 90° WSW 02:52:23 10° S
Helios 1B 4.5 02:43:13 10° SSE 02:47:30 88° ENE 02:51:52 10° NNW
Cosmos 1818 4.1 02:46:11 36° W 02:47:52 48° NW 02:53:11 10° NE
ATLAS 2AS CENTAUR R/B 3.8 02:43:30 10° NW 02:51:00 49° NNE 02:57:57 10° ESE
SL-16 R/B 4.5 02:48:08 10° SSE 02:52:15 21° E 02:56:22 10° NE
Cosmos 1821 Rocket 4.2 02:47:11 10° NNW 02:53:15 50° W 02:56:29 26° SSW
USA 307 3.5 02:52:25 39° S 02:53:24 47° SSE 02:57:30 10° ENE
Cosmos 1470 Rocket 3.7 02:50:27 10° NNW 02:54:45 50° W 02:55:25 46° SW
Cosmos 2227 4.3 02:49:46 10° NNW 02:55:28 78° ENE 03:01:07 10° SE
USA 308 3.4 02:55:23 38° SSW 02:56:29 49° SSE 03:00:37 10° ENE
Spot 4 Rocket 3.9 02:51:28 10° NNE 02:56:39 88° WNW 02:59:44 25° SSW
Cosmos 1812 4.4 02:53:13 10° SSE 02:56:41 33° E 03:00:11 10° NNE
Cosmos 1500 3.6 02:55:57 10° N 02:59:47 65° ENE 03:03:36 10° SSE
Cosmos 1666 4.3 03:02:01 10° N 03:05:37 36° ENE 03:09:10 10° SE
Landsat 5 3.5 03:01:26 10° SSE 03:05:58 79° WSW 03:10:28 10° NNW
Meteor 1-5 Rocket 4.2 03:00:57 10° N 03:06:16 75° ENE 03:11:38 10° SSE
Cosmos 1934 Rocket 3.9 03:02:25 10° NNW 03:08:23 62° W 03:14:20 10° S
Cosmos 1777 Rocket 4.5 03:04:27 10° NW 03:09:13 36° WSW 03:12:06 20° SSW
Cosmos 2227 Rocket 4.2 03:06:29 10° WNW 03:06:57 11° WNW 03:06:57 11° WNW
Cosmos 1238 Rocket 4.0 03:04:01 10° NNW 03:10:37 68° W 03:16:51 10° S
Cosmos 1782 2.8 03:10:11 35° SW 03:11:43 62° WNW 03:15:44 10° N
Cosmos 1898 Rocket 4.0 03:08:01 10° NNW 03:13:14 62° ENE 03:18:27 10° SE
Cosmos 1656 4.3 03:12:05 27° W 03:14:22 39° NW 03:19:33 10° NNE
Lacrosse 5 1.9 03:12:00 30° SW 03:14:33 78° SSE 03:19:39 10° ENE
CZ-2C R/B 2.6 03:12:40 10° N 03:16:26 75° WNW 03:18:32 25° SSW
ADEOS Rocket 3.4 03:09:49 10° SSE 03:16:35 74° ENE 03:22:42 10° NNW
CZ-4B R/B 2.8 03:13:41 10° SE 03:16:39 39° ENE 03:19:42 10° N
USA 234 3.6 03:10:45 10° SSE 03:16:47 39° SW 03:22:51 10° WNW
Cosmos 1515 Rocket 3.7 03:15:08 28° SW 03:17:16 55° WNW 03:21:40 10° N
ADEOS II 3.2 03:13:23 10° N 03:17:44 27° WNW 03:19:23 23° W
IRIDIUM 114 4.4 03:14:25 10° N 03:19:41 81° E 03:24:54 10° S
Nadezhda 3 Rocket 4.4 03:18:39 23° SW 03:22:01 43° WNW 03:27:53 10° N
USA 276 2.3 03:21:38 40° SW 03:22:29 57° S 03:25:39 10° E
Cosmos 972 Rocket 4.2 03:24:15 25° WSW 03:26:47 47° WNW 03:31:35 10° NNE
MSX 3.8 03:21:23 10° NNE 03:27:09 69° WNW 03:32:39 11° SSW
Cosmos 1356 3.9 03:24:02 10° NNW 03:27:15 37° W 03:28:27 27° SW
Cosmos 44 3.4 03:24:49 17° SSW 03:28:06 64° SE 03:32:46 10° NE
IRIDIUM 103 4.3 03:23:34 10° N 03:28:50 86° W 03:34:03 10° S
IDEFIX/ARIANE 42P 3.0 03:25:54 10° N 03:30:55 46° WNW 03:34:28 19° SW
Cosmos 1605 Rocket 4.0 03:24:50 10° NNW 03:31:10 65° W 03:37:28 10° S
Meteor 1-11 Rocket 3.9 03:25:32 10° NNW 03:31:25 80° ENE 03:37:07 10° SSE
Cosmos 1933 Rocket 4.3 03:28:08 10° NNW 03:32:01 31° W 03:34:17 19° SW
Cosmos 921 Rocket 3.1 03:27:52 10° SSW 03:32:01 72° ESE 03:36:13 10° NNE
Cosmos 2278 3.7 03:28:10 18° SW 03:32:30 72° WNW 03:38:14 10° NNE
CZ-3B R/B 2.8 03:32:05 23° W 03:34:16 72° N 03:45:31 10° ENE
Cosmos 2228 Rocket 3.0 03:31:12 11° SSW 03:35:24 68° WNW 03:39:50 10° N
SAR-Lupe-4 4.0 03:34:45 10° SSE 03:38:18 64° ENE 03:41:53 10° N
Cosmos 1151 Rocket 4.4 03:37:30 20° W 03:38:40 22° WNW 03:42:04 10° NNW
ARIANE 5 R/B 3.4 03:34:51 10° N 03:39:20 31° WNW 03:42:11 18° WSW
Cosmos 2369 4.1 03:36:41 19° WSW 03:40:34 48° NW 03:46:09 10° NNE
CZ-2D R/B 4.2 03:40:15 10° NNW 03:41:13 10° NW 03:42:10 10° NW
Cosmos 1937 Rocket 3.7 03:37:12 10° NNW 03:42:24 77° ENE 03:47:32 10° SSE
CZ-4C R/B 4.0 03:42:39 15° SW 03:44:52 27° W 03:47:58 10° NW
ALOS 3.5 03:41:41 10° NNE 03:46:10 43° E 03:50:37 10° S
Cosmos 1733 Rocket 3.8 03:41:56 10° N 03:46:15 58° ENE 03:50:32 10° SSE
IRIDIUM 106 4.3 03:41:58 10° N 03:47:08 63° W 03:52:16 10° S
Meteor 1-27 Rocket 4.3 03:43:00 10° S 03:48:52 65° E 03:54:44 10° NNE
Cosmos 1536 3.0 03:45:57 10° N 03:50:04 80° E 03:54:08 10° SSE
SAR-Lupe-1 4.1 03:47:02 10° SSE 03:50:36 84° ENE 03:54:12 10° NNW
Cosmos 1869 Rocket 3.8 03:46:56 10° NNW 03:51:07 46° W 03:55:15 10° SSW
ATLAS 5 CENTAUR R/B 3.5 03:49:42 10° WNW 03:53:26 24° N 03:57:38 10° NE
Cosmos 1484 Rocket 3.8 03:51:09 10° NNE 03:55:03 51° E 03:58:57 10° S
Meteor 1-4 Rocket 2.3 03:54:08 10° SSW 03:57:37 77° WNW 04:01:09 10° N
USA 305 2.9 03:58:51 15° WSW 04:02:24 87° NNW 04:06:41 10° ENE
X-37B 2.2 04:01:25 14° SW 04:03:19 22° S 04:05:52 10° SE
Cosmos 1689 Rocket 2.5 04:02:07 10° SSE 04:05:03 65° ENE 04:08:01 10° N
Cosmos 2100 Rocket 4.1 03:59:24 10° NNW 04:05:50 83° W 04:12:12 10° S
Meteor 1-31 Rocket 3.6 04:02:05 10° NNE 04:05:50 54° E 04:09:35 10° S
USA 306 2.9 04:02:46 13° WSW 04:06:29 84° NNW 04:10:46 10° ENE
SJ 16-02 2.0 04:03:00 10° NW 04:06:55 32° WSW 04:10:49 10° SSW
Cosmos 1763 Rocket 3.8 04:02:47 10° SSW 04:08:05 76° ESE 04:13:25 10° NNE
Cosmos 1727 Rocket 4.0 04:01:48 10° SSW 04:08:07 72° WNW 04:14:29 10° N
Cosmos 1802 Rocket 4.2 04:01:58 10° N 04:08:11 82° E 04:14:25 10° SSE
Cosmos 389 Rocket 4.0 04:06:12 13° WSW 04:08:16 20° WNW 04:11:01 10° NNW
PSLV R/B 3.8 04:04:17 10° N 04:08:21 47° WNW 04:12:22 10° SW
Cosmos 2360 Rocket 3.8 04:07:39 10° S 04:12:49 37° ESE 04:17:59 10° NE
H-2A R/B 3.4 04:11:02 10° SW 04:14:15 20° W 04:17:31 10° NW
ERS-2 3.2 04:11:58 10° SSW 04:14:57 23° W 04:17:58 10° NW
CZ-2C R/B 2.8 04:11:01 10° N 04:15:56 51° WNW 04:20:55 10° SW
NOSS 3-4 (A) 3.8 04:11:28 10° NW 04:18:21 77° SW 04:26:00 10° SE
NOSS 3-4 (C) 3.8 04:11:34 10° NW 04:18:27 78° SW 04:26:07 10° SE
Cosmos 1697 Rocket 3.8 04:14:21 10° W 04:19:08 28° NW 04:23:56 10° NNE
PAYLOAD A 4.3 04:15:03 10° N 04:19:29 40° WNW 04:23:51 10° SW
METEOR-M 4.5 04:14:55 10° NNE 04:20:18 72° ESE 04:25:38 10° S
USA 267 3.6 04:15:53 10° ENE 04:22:19 62° NNW 04:28:45 10° W
Cosmos 1980 Rocket 2.9 04:17:36 10° WSW 04:22:54 39° NW 04:28:14 10° NNE
Cosmos 2278 Rocket 4.3 04:18:49 10° NNW 04:23:36 27° NE 04:28:22 10° E
FENGYUN 3A 3.7 04:18:12 10° NNE 04:23:39 88° ESE 04:29:03 10° SSW
Cosmos 1844 4.1 04:18:54 10° NNW 04:24:30 69° ENE 04:30:03 10° SE
Cosmos 1459 Rocket 4.0 04:21:31 10° NNW 04:27:34 64° W 04:33:31 10° S
Cosmos 2322 Rocket 2.4 04:22:19 10° SSW 04:28:00 79° ESE 04:33:44 10° NNE
Cosmos 2263 Rocket 3.1 04:23:21 10° NW 04:28:00 27° WSW 04:32:41 10° SSW
CZ-4C R/B 3.5 04:22:02 10° NW 04:28:42 58° NE 04:36:35 10° ESE
NOSS 3-3 (A) 4.1 04:23:58 10° SW 04:29:54 77° NW 04:36:45 10° NE
NOSS 3-3 (C) 4.0 04:24:09 10° SW 04:30:01 77° NW 04:36:50 10° NE
Cosmos 2123 Rocket 4.5 04:26:47 10° S 04:32:58 70° E 04:39:15 10° NNE
